When you browse on this site, cookies collect data to enhance your experience and personalize the content and advertising you see.
Visit our Privacy Policy to learn more. By continuing to use the site, you agree to this use of cookies and data.

Hourly Weather Canberra

Today, 9 July, Thursday

Time Temperature Precipitation Wind Pressure Humidity
00:00 +4°C° 0 mm 0 mps 717 mmHg 93%
01:00 +4°C° 0 mm 0 mps 716 mmHg 93%
02:00 +4°C° 0 mm 0 mps 716 mmHg 93%
03:00 +4°C° 0 mm 0 mps 716 mmHg 93%
04:00 +4°C° 0 mm 0 mps 716 mmHg 93%
05:00 +4°C° 0 mm 0 mps 717 mmHg 93%
06:00 +3°C° 0 mm 0 mps 717 mmHg 94%
07:00 +3°C° 0 mm 0 mps 717 mmHg 94%
08:00 +5°C° 0 mm 0 mps 717 mmHg 87%
09:00 +8°C° 0 mm 0 mps 717 mmHg 80%
10:00 +10°C° 0 mm 0 mps 718 mmHg 71%
11:00 +12°C° 0 mm 1 mps 717 mmHg 66%
12:00 +13°C° 0 mm 1 mps 717 mmHg 60%
13:00 +14°C° 0 mm 2 mps 716 mmHg 55%
14:00 +14°C° 0 mm 2 mps 716 mmHg 58%
15:00 +13°C° 0 mm 2 mps 716 mmHg 62%
16:00 +12°C° 0 mm 2 mps 716 mmHg 66%
17:00 +10°C° 0 mm 2 mps 716 mmHg 73%
18:00 +9°C° 0 mm 1 mps 716 mmHg 80%
19:00 +7°C° 0 mm 1 mps 716 mmHg 87%
20:00 +7°C° 0 mm 1 mps 716 mmHg 88%
21:00 +6°C° 0 mm 0 mps 716 mmHg 89%
22:00 +5°C° 0 mm 0 mps 716 mmHg 90%
23:00 +5°C° 0 mm 0 mps 716 mmHg 90%

Tomorrow, 10 July, Friday

Time Temperature Precipitation Wind Pressure Humidity
00:00 +5°C° 0 mm 0 mps 716 mmHg 90%
01:00 +5°C° 0 mm 0 mps 716 mmHg 90%
02:00 +5°C° 0 mm 0 mps 715 mmHg 90%
03:00 +5°C° 0 mm 0 mps 715 mmHg 90%
04:00 +4°C° 0 mm 0 mps 715 mmHg 90%
05:00 +4°C° 0 mm 0 mps 715 mmHg 90%
06:00 +4°C° 0 mm 0 mps 715 mmHg 89%
07:00 +4°C° 0 mm 0 mps 715 mmHg 89%
08:00 +6°C° 0 mm 0 mps 715 mmHg 81%
09:00 +8°C° 0 mm 0 mps 715 mmHg 74%
10:00 +10°C° 0 mm 0 mps 716 mmHg 66%
11:00 +12°C° 0 mm 1 mps 715 mmHg 65%
12:00 +12°C° 0 mm 1 mps 714 mmHg 64%
13:00 +13°C° 0 mm 2 mps 714 mmHg 63%
14:00 +13°C° 0 mm 1 mps 713 mmHg 66%
15:00 +12°C° 0 mm 1 mps 713 mmHg 68%
16:00 +12°C° 0 mm 1 mps 712 mmHg 71%
17:00 +10°C° 0 mm 0 mps 712 mmHg 75%
18:00 +9°C° 0 mm 0 mps 712 mmHg 78%
19:00 +8°C° 0 mm 0 mps 712 mmHg 82%
20:00 +8°C° 0.1 mm 0 mps 712 mmHg 83%
21:00 +8°C° 0.1 mm 0 mps 712 mmHg 85%
22:00 +8°C° 0.1 mm 0 mps 712 mmHg 86%
23:00 +9°C° 0.3 mm 1 mps 712 mmHg 89%

Day after tomorrow, 11 July, Saturday

Time Temperature Precipitation Wind Pressure Humidity
00:00 +9°C° 0.3 mm 1 mps 711 mmHg 91%
01:00 +9°C° 0.3 mm 1 mps 710 mmHg 94%
02:00 +9°C° 2 mm 1 mps 710 mmHg 95%
03:00 +9°C° 2 mm 1 mps 709 mmHg 96%
04:00 +8°C° 2 mm 0 mps 709 mmHg 98%
05:00 +8°C° 0.3 mm 0 mps 709 mmHg 98%
06:00 +8°C° 0.3 mm 0 mps 709 mmHg 98%
07:00 +8°C° 0.3 mm 0 mps 709 mmHg 98%
08:00 +9°C° 0.1 mm 1 mps 709 mmHg 96%
09:00 +9°C° 0.1 mm 2 mps 709 mmHg 95%
10:00 +9°C° 0.1 mm 3 mps 709 mmHg 94%
11:00 +10°C° 0.1 mm 3 mps 709 mmHg 91%
12:00 +11°C° 0.1 mm 3 mps 709 mmHg 87%
13:00 +11°C° 0.1 mm 3 mps 708 mmHg 84%
14:00 +11°C° 0 mm 3 mps 708 mmHg 82%
15:00 +11°C° 0 mm 3 mps 708 mmHg 81%
16:00 +12°C° 0 mm 2 mps 708 mmHg 80%
17:00 +10°C° 0 mm 2 mps 708 mmHg 85%
18:00 +8°C° 0 mm 2 mps 708 mmHg 91%
19:00 +8°C° 0 mm 1 mps 708 mmHg 97%
20:00 +7°C° 0 mm 1 mps 708 mmHg 97%
21:00 +7°C° 0 mm 1 mps 708 mmHg 97%
22:00 +7°C° 0 mm 1 mps 708 mmHg 97%
23:00 +6°C° 0 mm 0 mps 708 mmHg 97%

12 July, Sunday

Time Temperature Precipitation Wind Pressure Humidity
00:00 +6°C° 0 mm 0 mps 708 mmHg 96%
01:00 +6°C° 0 mm 0 mps 708 mmHg 96%
02:00 +7°C° 0 mm 1 mps 708 mmHg 96%
03:00 +7°C° 0 mm 1 mps 708 mmHg 96%
04:00 +7°C° 0 mm 1 mps 708 mmHg 95%
05:00 +6°C° 0.1 mm 0 mps 708 mmHg 95%
06:00 +6°C° 0.1 mm 0 mps 708 mmHg 94%
07:00 +6°C° 0.1 mm 0 mps 708 mmHg 93%
08:00 +8°C° 0.2 mm 1 mps 709 mmHg 89%
09:00 +10°C° 0.2 mm 1 mps 709 mmHg 85%
10:00 +11°C° 0.2 mm 1 mps 709 mmHg 81%
11:00 +10°C° 0.4 mm 2 mps 709 mmHg 80%
12:00 +12°C° 0.4 mm 2 mps 708 mmHg 79%
13:00 +11°C° 0.4 mm 3 mps 707 mmHg 77%
14:00 +12°C° 0.2 mm 2 mps 707 mmHg 79%
15:00 +11°C° 0.2 mm 1 mps 707 mmHg 81%
16:00 +10°C° 0.2 mm 0 mps 707 mmHg 83%
17:00 +10°C° 0.1 mm 1 mps 707 mmHg 87%
18:00 +8°C° 0.1 mm 1 mps 707 mmHg 90%
19:00 +7°C° 0.1 mm 1 mps 707 mmHg 94%
20:00 +7°C° 0.5 mm 1 mps 708 mmHg 94%
21:00 +7°C° 0.5 mm 1 mps 708 mmHg 94%
22:00 +7°C° 0.5 mm 1 mps 708 mmHg 95%
23:00 +7°C° 0.2 mm 1 mps 708 mmHg 95%

13 July, Monday

Time Temperature Precipitation Wind Pressure Humidity
00:00 +6°C° 0.2 mm 1 mps 708 mmHg 95%
01:00 +6°C° 0.2 mm 1 mps 708 mmHg 95%
02:00 +6°C° 0.3 mm 1 mps 708 mmHg 95%
03:00 +6°C° 0.3 mm 1 mps 708 mmHg 95%
04:00 +7°C° 0.3 mm 1 mps 708 mmHg 95%
05:00 +7°C° 0.3 mm 1 mps 708 mmHg 95%
06:00 +7°C° 0.3 mm 1 mps 708 mmHg 95%
07:00 +7°C° 0.3 mm 1 mps 709 mmHg 95%
08:00 +7°C° 0 mm 2 mps 709 mmHg 91%
09:00 +8°C° 0 mm 2 mps 709 mmHg 88%
10:00 +9°C° 0 mm 2 mps 710 mmHg 84%
11:00 +9°C° 0 mm 3 mps 709 mmHg 80%
12:00 +10°C° 0 mm 3 mps 709 mmHg 75%
13:00 +11°C° 0 mm 4 mps 709 mmHg 71%
14:00 +8°C° 2 mm 4 mps 709 mmHg 78%
15:00 +8°C° 2 mm 3 mps 709 mmHg 86%
16:00 +5°C° 2 mm 3 mps 708 mmHg 94%
17:00 +7°C° 0.8 mm 3 mps 709 mmHg 94%
18:00 +7°C° 0.8 mm 3 mps 709 mmHg 95%
19:00 +8°C° 0.8 mm 3 mps 710 mmHg 95%
20:00 +8°C° 0.4 mm 3 mps 710 mmHg 94%
21:00 +8°C° 0.4 mm 3 mps 711 mmHg 93%
22:00 +8°C° 0.4 mm 3 mps 711 mmHg 91%
23:00 +8°C° 0 mm 3 mps 711 mmHg 91%

14 July, Tuesday

Time Temperature Precipitation Wind Pressure Humidity
00:00 +6°C° 0 mm 4 mps 711 mmHg 91%
01:00 +6°C° 0 mm 4 mps 711 mmHg 91%
02:00 +5°C° 0 mm 3 mps 711 mmHg 90%
03:00 +5°C° 0 mm 3 mps 712 mmHg 90%
04:00 +4°C° 0 mm 3 mps 712 mmHg 90%
05:00 +4°C° 0 mm 3 mps 712 mmHg 90%
06:00 +5°C° 0 mm 2 mps 713 mmHg 89%
07:00 +5°C° 0 mm 2 mps 713 mmHg 89%
08:00 +5°C° 0 mm 4 mps 713 mmHg 83%
09:00 +6°C° 0 mm 5 mps 714 mmHg 77%
10:00 +8°C° 0 mm 6 mps 714 mmHg 71%
11:00 +9°C° 0 mm 6 mps 714 mmHg 67%
12:00 +9°C° 0 mm 6 mps 713 mmHg 63%
13:00 +10°C° 0 mm 6 mps 713 mmHg 58%
14:00 +9°C° 0 mm 6 mps 713 mmHg 60%
15:00 +9°C° 0 mm 5 mps 713 mmHg 62%
16:00 +8°C° 0 mm 5 mps 713 mmHg 63%
17:00 +7°C° 0 mm 4 mps 714 mmHg 67%
18:00 +6°C° 0 mm 4 mps 714 mmHg 71%
19:00 +5°C° 0 mm 3 mps 714 mmHg 74%
20:00 +4°C° 0 mm 3 mps 714 mmHg 77%
21:00 +4°C° 0 mm 3 mps 714 mmHg 79%
22:00 +3°C° 0 mm 3 mps 714 mmHg 81%
23:00 +3°C° 0 mm 3 mps 714 mmHg 82%
Show more